Wind_Speed
22 22 22 23 23 22 21 20 19 19 19 18 19 19 19 18 18 17 17 17 16 16 16 15 15 15 15 14 14 14 13 13 12 13 13 13 12 12 12 12 11 11 11 11 11 10 10 9 9
23 23 24 24 24 23 21 21 21 20 20 20 20 20 20 19 19 19 18 18 18 18 18 17 17 17 17 17 16 16 16 15 15 15 15 15 15 14 14 14 13 13 12 12 12 12 12 11 10
24 24 25 25 25 23 22 22 22 22 22 22 22 21 21 21 20 20 20 20 20 19 20 20 19 19 19 19 18 18 17 17 17 17 17 17 17 17 16 16 15 15 14 14 14 14 14 13 12
26 26 26 26 25 24 23 24 24 24 23 23 23 23 23 22 22 22 22 22 21 21 21 22 21 21 21 20 20 20 20 19 19 19 18 19 19 19 18 18 18 17 17 17 16 16 16 15 15
28 28 28 27 26 25 25 25 25 25 24 25 25 25 24 24 24 23 23 23 23 23 23 23 23 23 23 22 22 22 22 21 21 21 21 21 21 20 20 20 21 20 20 19 19 19 18 18 18
29 29 29 28 27 26 26 26 26 26 26 26 26 26 26 26 25 25 25 25 24 25 25 25 25 25 25 25 24 24 24 24 24 24 24 23 23 23 23 22 23 23 23 22 22 21 21 21 21
30 30 30 29 27 27 27 27 27 27 27 27 28 28 28 28 27 27 27 26 26 26 26 27 27 27 26 26 26 26 26 25 26 26 26 26 26 26 26 26 25 25 26 25 25 24 23 23 23
31 31 30 29 28 27 27 28 28 28 28 28 30 30 30 29 29 28 28 28 28 28 28 28 28 28 28 28 28 27 28 28 28 29 29 29 28 28 29 28 28 28 28 28 27 27 26 26 25
33 33 31 30 29 29 29 29 29 29 29 29 30 31 31 31 30 30 30 30 30 30 30 30 30 30 30 30 30 30 30 30 31 31 31 31 31 31 30 30 30 30 30 30 29 29 29 28 28
34 34 32 32 31 31 30 31 30 30 30 30 31 32 33 32 32 31 31 31 31 31 31 30 31 31 31 32 32 32 32 32 33 33 33 33 33 33 32 32 32 32 31 32 32 31 31 31 31
35 35 33 33 33 32 32 32 32 32 31 31 32 33 34 33 33 32 33 33 33 33 32 32 31 32 33 33 34 34 33 34 34 34 35 34 35 34 34 34 33 33 33 33 33 33 33 33 33
35 34 34 33 33 33 33 33 33 33 32 32 33 33 33 33 33 33 34 34 33 33 34 33 33 33 34 34 35 35 34 34 35 35 35 35 35 35 35 35 35 34 34 34 34 34 35 35 35
34 33 33 33 33 33 33 34 34 33 32 32 33 33 32 33 33 34 34 35 35 34 35 34 34 34 34 35 36 36 36 35 36 36 37 37 38 36 36 36 36 36 36 36 36 36 36 36 36
34 34 34 34 33 33 33 33 34 33 33 33 33 32 32 32 33 34 34 34 35 35 35 35 36 35 34 35 36 37 37 37 37 38 38 38 38 38 38 37 37 38 38 38 37 37 37 37 37
35 35 34 34 33 33 34 33 33 33 34 34 33 33 33 33 33 33 34 34 35 35 35 35 36 36 35 35 35 36 37 37 38 39 40 39 39 39 39 39 39 39 39 39 39 39 39 39 38
33 34 34 34 34 33 34 32 32 33 34 34 34 33 33 33 33 33 34 34 35 35 36 36 37 38 37 36 35 36 37 39 39 40 40 40 40 40 40 40 40 40 41 41 40 40 40 40 40
33 34 34 34 34 34 34 33 33 34 34 34 33 33 33 33 32 33 33 33 35 36 36 37 37 38 38 37 37 38 38 40 40 40 40 40 41 40 40 41 41 41 42 42 42 42 42 41 41
33 33 33 34 34 34 35 34 33 34 34 34 34 34 33 33 32 33 33 33 34 35 36 36 37 37 37 38 37 38 39 39 40 40 41 40 41 41 41 41 42 43 43 43 43 43 43 42 42
34 34 34 33 34 35 35 34 33 33 34 34 34 34 34 33 33 34 34 34 34 34 35 35 36 36 37 38 38 38 39 39 40 41 42 41 41 42 41 41 42 43 43 43 43 43 43 43 43
34 34 34 35 35 36 36 35 34 34 35 35 34 34 34 34 33 34 34 34 34 35 35 35 36 35 37 37 38 38 40 41 41 41 42 43 42 42 41 41 42 43 43 43 44 44 44 45 45
34 34 34 35 35 36 37 36 34 34 35 35 35 34 33 33 33 34 35 35 35 36 36 37 36 36 36 36 36 37 38 40 41 41 42 42 43 42 42 42 42 43 43 44 45 45 45 45 46
33 33 33 34 34 35 36 37 33 33 34 34 34 34 34 33 34 34 34 35 35 36 36 36 36 36 37 37 37 38 38 39 40 40 42 42 43 43 41 41 42 43 44 44 44 45 46 47 47
32 32 33 34 35 35 35 36 34 32 33 33 33 33 34 34 34 34 35 35 35 36 37 37 38 38 39 40 40 40 40 40 40 40 41 42 43 43 42 42 42 43 44 45 46 46 47 47 47
31 32 33 34 35 36 34 36 34 32 32 32 33 33 33 33 33 33 34 34 35 36 38 38 39 39 41 41 41 42 42 42 40 40 41 42 43 43 43 44 44 44 45 46 47 47 47 48 48
31 31 32 33 35 36 34 35 34 32 31 31 32 32 33 33 34 34 34 35 36 36 36 37 39 39 40 40 41 42 41 41 41 41 42 42 43 43 42 44 45 45 45 45 46 47 48 48 49
30 30 31 33 34 34 33 34 33 32 32 31 32 32 33 34 36 36 36 35 35 36 36 37 38 39 39 40 41 42 41 40 40 40 41 42 42 42 43 44 45 45 44 45 47 48 48 49 50
30 29 30 32 34 34 34 34 33 32 32 31 32 32 33 34 35 36 36 36 36 36 36 37 37 39 39 40 40 40 40 40 40 40 39 40 42 43 45 46 46 46 46 45 46 47 49 49 50
31 30 30 31 33 34 35 33 32 31 31 32 32 32 33 34 34 35 36 36 37 37 37 37 38 39 39 40 40 40 40 40 40 40 40 41 42 43 45 46 46 47 47 46 46 46 47 48 48
31 31 32 33 34 36 36 34 32 31 31 31 32 33 33 33 33 34 35 36 37 37 38 38 38 38 39 39 40 40 40 41 41 41 41 41 42 43 44 45 45 45 46 46 45 45 45 46 47
32 32 33 34 35 36 36 34 32 32 31 31 32 32 32 33 33 34 35 36 37 37 37 38 38 38 38 39 39 40 40 41 41 41 42 42 43 44 43 44 44 44 44 44 45 44 44 44 44
Wind_Direction
250 251 253 253 254 255 257 258 260 262 263 264 266 267 268 268 268 267 266 265 264 265 266 267 266 266 266 267 268 267 268 268 268 268 267 268 268 273 275 275 275 276 276 277 276 274 273 273 275
250 252 252 253 254 256 258 260 261 262 263 264 264 265 266 267 268 267 266 265 263 263 264 265 265 266 265 264 265 265 267 267 267 267 266 266 266 268 271 271 271 272 272 273 274 272 271 270 272
250 251 253 254 255 257 259 259 260 262 263 263 264 263 264 266 267 268 267 267 265 264 263 264 264 264 264 263 263 263 264 266 267 268 266 265 264 266 267 269 269 268 268 269 271 271 271 270 270
251 252 253 254 256 257 258 259 260 261 262 262 263 264 264 266 267 268 268 268 266 264 263 263 263 262 261 262 262 263 263 264 266 267 266 265 264 265 266 267 268 267 266 267 268 269 270 269 269
251 253 254 255 257 258 259 259 260 261 262 263 263 263 264 266 267 267 267 267 266 265 263 262 263 263 262 262 262 262 263 263 264 265 266 265 264 265 265 265 266 266 266 265 265 266 267 268 268
252 253 255 256 257 258 259 260 260 260 261 262 263 263 264 265 265 266 266 266 266 265 263 262 262 263 262 262 262 262 263 263 264 264 265 265 266 266 266 265 265 265 266 265 265 265 266 267 267
253 254 256 257 257 258 259 260 260 261 262 262 263 263 264 264 264 265 266 266 266 264 264 263 262 262 262 262 262 262 263 263 264 264 265 265 266 266 266 266 266 266 265 264 264 265 265 266 266
253 255 256 257 257 257 259 260 261 261 262 262 263 263 263 263 264 264 265 266 266 265 265 265 264 263 261 261 260 261 263 263 263 264 263 264 265 266 266 267 266 266 264 264 264 264 265 265 266
252 254 255 257 257 257 258 260 261 261 261 262 264 264 263 263 263 264 265 265 266 265 265 264 263 263 262 260 259 260 262 263 263 263 262 263 264 265 266 267 267 267 265 263 263 263 264 265 265
253 255 256 257 257 257 258 259 260 261 262 263 265 265 264 263 263 264 265 265 265 265 264 264 263 263 262 261 260 260 261 263 263 263 263 263 264 264 265 266 267 266 265 263 262 262 263 263 264
255 255 256 256 257 257 258 259 260 261 262 264 265 265 264 264 263 263 264 264 263 262 262 262 261 260 260 261 261 260 261 263 263 263 263 264 264 264 264 265 265 264 264 263 262 261 262 263 263
256 256 256 256 257 257 258 260 260 261 263 264 265 266 265 264 263 263 263 263 262 261 261 261 261 261 260 260 260 260 261 261 262 262 263 263 264 264 263 263 263 262 262 262 261 261 262 263 263
256 256 256 256 257 257 258 259 260 261 262 263 265 265 265 265 264 264 263 262 261 260 260 260 260 260 260 259 259 260 261 261 262 262 263 263 263 263 263 262 262 262 262 262 261 262 262 263 264
256 256 256 256 257 258 258 259 260 261 262 263 265 265 264 265 265 265 263 261 260 259 259 259 258 259 259 258 258 260 261 260 261 263 263 263 264 263 263 263 262 262 263 263 263 262 263 264 266
256 257 257 257 258 258 258 258 260 260 262 263 264 265 265 265 266 265 264 261 259 259 258 259 258 257 259 259 259 260 259 259 261 264 264 264 263 262 262 263 263 262 263 263 263 263 264 265 266
257 257 257 257 258 258 259 259 259 260 261 263 264 265 265 266 265 264 263 261 259 258 258 258 259 258 260 260 261 260 260 260 261 263 264 264 264 263 262 262 263 263 263 263 263 262 263 265 266
257 259 258 258 258 259 260 260 260 261 262 262 264 264 264 265 265 264 264 262 260 259 259 260 260 259 260 261 262 262 262 262 262 262 263 264 265 264 263 262 262 263 263 263 263 262 262 264 265
259 260 259 259 259 259 260 261 262 262 262 262 263 263 264 265 265 265 264 264 262 260 260 260 260 259 260 262 263 265 264 264 263 264 263 263 264 265 264 264 264 263 264 264 264 263 263 263 264
259 260 259 259 260 260 260 261 261 262 263 263 263 264 265 265 265 264 264 264 263 261 261 261 262 260 260 263 264 264 265 265 265 265 264 263 264 264 264 264 264 264 265 264 264 263 264 265 266
259 260 261 261 261 261 261 262 262 263 264 265 264 265 265 265 264 264 263 263 263 261 261 262 263 262 263 264 265 266 267 267 268 266 263 263 264 264 264 264 264 264 264 264 263 264 265 266 266
260 262 262 262 262 262 262 262 262 263 264 265 265 265 265 266 265 265 264 263 263 262 262 264 264 263 263 264 266 267 268 268 268 266 265 264 264 265 266 265 265 265 264 264 264 264 265 266 266
260 261 262 262 263 263 263 264 262 264 265 265 265 265 265 265 265 265 265 264 263 263 265 264 264 265 266 267 268 268 270 269 267 266 265 265 266 266 267 267 266 265 265 265 265 266 267 266 266
260 261 262 263 264 264 264 266 263 264 266 266 266 266 266 265 265 264 265 264 263 265 266 266 266 267 268 269 270 268 270 271 269 266 265 266 267 267 268 268 267 266 266 266 266 266 267 267 267
261 262 263 264 265 264 264 267 266 265 266 267 267 267 267 265 264 264 264 266 267 267 267 267 268 268 269 270 270 270 271 271 269 267 266 266 267 268 270 269 269 268 268 267 267 267 268 268 268
262 264 265 266 265 265 266 268 270 269 268 268 268 268 267 264 263 264 266 267 268 268 267 267 268 268 269 271 271 271 271 271 269 269 269 268 268 269 270 271 270 270 269 268 267 268 269 269 270
262 263 266 268 267 267 267 268 270 272 271 271 270 270 269 268 266 266 267 267 268 268 269 269 269 268 270 271 272 272 271 270 270 270 270 269 269 269 271 271 271 271 270 269 269 269 269 270 270
261 261 265 268 269 270 269 269 270 272 273 273 273 272 271 270 269 267 267 268 269 270 270 270 270 270 270 271 272 272 271 271 271 271 271 271 271 271 271 272 272 272 272 272 272 272 270 270 270
261 263 265 267 270 272 272 271 271 272 274 274 273 272 272 271 271 270 268 267 269 270 270 270 270 271 271 271 271 272 272 272 272 272 271 272 274 274 274 274 273 272 272 272 272 272 272 270 269
261 263 265 267 267 271 273 273 273 275 274 273 273 273 273 273 272 271 270 269 268 269 270 270 271 272 272 272 272 272 272 273 273 273 273 274 275 276 276 275 275 274 274 273 272 273 272 271 269
262 263 264 266 267 268 272 274 275 276 275 274 273 273 273 272 272 271 270 270 269 269 270 271 272 273 274 274 273 273 273 273 274 274 274 275 276 277 277 276 275 275 275 275 274 273 273 272 271
Height
5817 5818 5820 5821 5823 5824 5825 5827 5827 5828 5829 5830 5830 5831 5832 5833 5835 5838 5837 5836 5836 5837 5838 5838 5839 5839 5840 5840 5841 5842 5842 5842 5842 5843 5843 5844 5844 5845 5845 5846 5846 5847 5847 5847 5848 5848 5848 5848 5849
5813 5814 5816 5817 5818 5820 5822 5823 5824 5825 5826 5826 5827 5828 5828 5829 5830 5831 5831 5832 5833 5834 5834 5835 5835 5836 5836 5837 5838 5838 5839 5839 5839 5840 5840 5841 5841 5842 5843 5843 5844 5844 5844 5845 5845 5846 5846 5846 5846
5809 5810 5812 5813 5814 5816 5818 5819 5820 5820 5821 5822 5823 5824 5825 5826 5826 5827 5828 5828 5829 5830 5830 5831 5832 5832 5833 5833 5834 5834 5835 5835 5836 5836 5837 5837 5838 5838 5839 5840 5840 5841 5841 5842 5842 5843 5843 5844 5844
5804 5806 5807 5809 5810 5812 5813 5814 5815 5816 5817 5817 5818 5819 5820 5821 5822 5823 5823 5824 5825 5825 5826 5827 5827 5828 5828 5829 5829 5830 5831 5831 5832 5832 5833 5833 5834 5834 5835 5836 5837 5837 5838 5838 5839 5839 5840 5841 5841
5799 5800 5802 5803 5806 5807 5808 5809 5810 5811 5812 5813 5813 5814 5816 5817 5817 5818 5818 5819 5820 5820 5821 5822 5822 5823 5823 5824 5825 5826 5826 5827 5828 5828 5829 5829 5830 5830 5831 5832 5833 5833 5834 5834 5835 5836 5836 5837 5837
5794 5795 5797 5799 5801 5802 5803 5804 5805 5806 5807 5808 5808 5809 5810 5812 5812 5813 5813 5814 5815 5815 5816 5816 5817 5817 5818 5819 5820 5821 5821 5822 5823 5823 5824 5825 5825 5826 5826 5827 5827 5828 5829 5830 5831 5831 5832 5832 5833
5789 5790 5791 5794 5796 5797 5798 5798 5800 5801 5802 5803 5803 5804 5805 5806 5807 5807 5808 5808 5809 5810 5810 5811 5811 5812 5813 5814 5814 5815 5816 5817 5817 5818 5819 5819 5820 5821 5821 5821 5822 5823 5824 5824 5825 5826 5827 5828 5828
5782 5784 5785 5788 5790 5792 5793 5793 5794 5795 5796 5797 5797 5798 5800 5800 5801 5802 5802 5803 5803 5803 5804 5804 5805 5805 5806 5807 5808 5809 5810 5811 5811 5812 5813 5813 5814 5814 5815 5815 5816 5816 5817 5818 5819 5820 5821 5822 5823
5776 5779 5780 5782 5784 5786 5786 5787 5788 5789 5790 5791 5791 5792 5793 5794 5795 5796 5796 5796 5797 5797 5797 5797 5798 5798 5799 5800 5802 5803 5803 5804 5805 5806 5806 5807 5807 5808 5808 5809 5809 5810 5810 5811 5812 5813 5814 5816 5817
5769 5772 5775 5776 5777 5779 5780 5780 5781 5782 5783 5784 5784 5785 5785 5787 5788 5789 5789 5790 5790 5790 5790 5790 5790 5791 5792 5793 5794 5795 5796 5797 5798 5798 5798 5799 5799 5800 5800 5801 5802 5802 5803 5804 5805 5806 5807 5808 5810
5763 5765 5768 5769 5770 5771 5773 5773 5774 5775 5776 5777 5777 5777 5778 5779 5780 5781 5782 5782 5782 5782 5782 5783 5783 5783 5784 5785 5787 5788 5789 5789 5790 5790 5790 5791 5791 5791 5792 5793 5793 5794 5795 5796 5797 5798 5799 5801 5802
5756 5759 5760 5761 5762 5764 5765 5766 5767 5768 5770 5769 5769 5770 5770 5771 5772 5773 5773 5774 5774 5774 5775 5775 5776 5776 5776 5777 5778 5780 5781 5781 5781 5782 5782 5782 5782 5782 5783 5784 5785 5786 5787 5787 5788 5790 5791 5792 5794
5750 5752 5753 5754 5755 5757 5758 5759 5760 5761 5762 5762 5762 5762 5763 5763 5764 5764 5764 5765 5765 5766 5767 5767 5768 5768 5769 5769 5770 5771 5772 5773 5773 5773 5773 5773 5773 5774 5775 5775 5776 5777 5778 5779 5780 5781 5783 5784 5785
5743 5744 5746 5747 5748 5749 5750 5751 5752 5754 5754 5754 5755 5755 5755 5756 5756 5756 5756 5756 5757 5758 5759 5759 5760 5760 5760 5761 5762 5763 5763 5764 5764 5765 5764 5764 5764 5765 5766 5767 5767 5768 5769 5770 5771 5773 5774 5775 5776
5735 5737 5739 5740 5741 5742 5743 5744 5746 5746 5746 5747 5747 5747 5747 5748 5747 5747 5747 5748 5748 5749 5750 5751 5751 5751 5752 5752 5753 5753 5754 5755 5755 5755 5756 5755 5755 5755 5756 5758 5758 5760 5760 5761 5762 5764 5765 5766 5767
5728 5729 5731 5733 5734 5734 5736 5738 5739 5738 5739 5740 5740 5740 5740 5740 5739 5739 5739 5739 5740 5741 5742 5742 5741 5742 5743 5743 5744 5744 5745 5745 5746 5746 5746 5746 5746 5746 5747 5748 5749 5750 5751 5752 5753 5754 5756 5757 5758
5721 5722 5724 5726 5726 5727 5728 5730 5731 5730 5731 5732 5732 5732 5732 5732 5732 5731 5731 5731 5732 5732 5733 5733 5733 5733 5734 5735 5735 5736 5736 5736 5736 5736 5737 5737 5737 5737 5737 5738 5739 5740 5741 5742 5743 5744 5746 5747 5748
5714 5715 5717 5718 5719 5719 5720 5722 5723 5723 5723 5724 5724 5724 5724 5724 5724 5723 5723 5723 5723 5724 5724 5724 5724 5725 5725 5726 5726 5727 5727 5726 5726 5726 5727 5727 5727 5727 5728 5728 5729 5730 5731 5732 5733 5734 5735 5737 5738
5706 5707 5709 5710 5710 5711 5712 5714 5716 5715 5715 5715 5715 5715 5716 5716 5715 5715 5715 5715 5715 5715 5715 5716 5715 5716 5717 5717 5717 5718 5718 5718 5717 5717 5717 5717 5717 5718 5718 5718 5719 5719 5720 5721 5722 5723 5725 5726 5727
5698 5700 5701 5702 5702 5702 5703 5705 5707 5707 5707 5707 5707 5707 5707 5707 5707 5706 5707 5707 5707 5707 5707 5708 5708 5708 5709 5709 5709 5708 5708 5708 5708 5707 5707 5707 5707 5708 5707 5707 5708 5709 5710 5711 5712 5713 5714 5716 5716
5691 5692 5693 5694 5694 5694 5694 5696 5698 5699 5698 5699 5699 5699 5699 5699 5699 5699 5699 5699 5699 5699 5700 5700 5700 5700 5700 5700 5699 5699 5699 5698 5698 5698 5697 5697 5697 5697 5697 5697 5698 5698 5698 5700 5701 5702 5703 5704 5705
5684 5685 5685 5685 5685 5686 5686 5686 5690 5690 5690 5690 5691 5690 5690 5691 5691 5691 5690 5690 5691 5691 5691 5691 5692 5692 5691 5691 5691 5691 5690 5689 5689 5688 5688 5687 5687 5687 5686 5686 5686 5687 5688 5689 5690 5690 5691 5692 5693
5676 5677 5677 5677 5677 5677 5678 5678 5682 5682 5682 5683 5683 5682 5682 5682 5682 5682 5682 5682 5682 5683 5683 5683 5683 5683 5683 5682 5681 5681 5680 5679 5679 5678 5678 5677 5677 5677 5676 5676 5676 5676 5677 5678 5678 5679 5679 5680 5681
5668 5669 5669 5669 5668 5669 5671 5670 5672 5674 5675 5675 5674 5673 5673 5673 5673 5674 5674 5674 5674 5674 5674 5674 5674 5674 5673 5673 5672 5671 5670 5669 5669 5668 5668 5668 5667 5666 5666 5665 5665 5665 5665 5666 5666 5666 5667 5667 5668
5661 5662 5662 5661 5660 5661 5664 5662 5665 5667 5667 5667 5666 5666 5665 5665 5665 5665 5666 5666 5666 5666 5665 5665 5665 5665 5664 5663 5662 5661 5660 5659 5659 5658 5658 5657 5657 5656 5655 5654 5654 5654 5653 5653 5654 5654 5654 5655 5655
5654 5655 5655 5654 5654 5655 5655 5655 5659 5659 5659 5658 5658 5657 5657 5656 5656 5657 5657 5657 5657 5656 5656 5656 5656 5655 5654 5653 5652 5651 5650 5649 5649 5648 5648 5647 5646 5645 5645 5643 5643 5642 5642 5641 5641 5641 5641 5642 5642
5647 5647 5648 5647 5646 5646 5647 5648 5650 5650 5650 5650 5649 5649 5648 5648 5647 5648 5648 5648 5648 5647 5647 5646 5646 5646 5645 5644 5642 5641 5640 5639 5639 5638 5637 5637 5636 5635 5634 5633 5632 5631 5630 5629 5629 5628 5628 5628 5628
5640 5640 5640 5639 5638 5638 5639 5640 5642 5642 5642 5641 5641 5640 5639 5639 5638 5638 5638 5638 5638 5638 5637 5636 5636 5635 5634 5633 5633 5632 5631 5630 5629 5628 5627 5626 5626 5624 5623 5621 5620 5619 5618 5617 5616 5616 5615 5615 5615
5633 5633 5632 5631 5631 5630 5630 5635 5634 5634 5633 5633 5632 5631 5630 5630 5629 5629 5629 5629 5628 5628 5627 5627 5626 5625 5624 5623 5622 5622 5621 5620 5619 5618 5617 5616 5615 5613 5611 5610 5608 5607 5606 5605 5604 5604 5603 5603 5603
5624 5625 5625 5625 5624 5623 5622 5628 5626 5625 5624 5623 5623 5622 5621 5621 5620 5619 5619 5618 5618 5617 5617 5616 5616 5615 5614 5613 5613 5612 5611 5610 5608 5607 5606 5605 5604 5602 5600 5598 5596 5595 5594 5593 5592 5592 5591 5591 5591